[[{"header":{"parameterUnit":"m.s-1","parameterCategory":2,"la1":30.2991,"la2":30.254,"lo1":-89.0895,"lo2":-89.0444,"dy":0.0017,"dx":0.0017,"nx":28,"ny":28,"refTime":"2024-03-17T03:00:00:Z","depth":"0","parameterNumber":2,"parameterNumberName":"U-component_of_CURRENTS"},"data":[0,0,0,0,0,0,0,0,0,0,0,0,0,0,0,0,0,0,0,0,0,0,0,0,0,0,0,0,0,0,0,0,0,0,0,0,0,0,0,0,0,0,0,0,0,0,0,0,0,0,0,0,0,0,0,0,0,0,-0.3559,-0.3558,0,-0.3573,-0.3575,-0.3576,-0.3651,-0.3652,-0.3652,-0.3652,-0.355,-0.3547,-0.3544,0,0,0,0,0,0,0,0,0,0,0,0,0,-0.3654,-0.3653,-0.3559,-0.3557,-0.3556,-0.3573,-0.3575,-0.3577,-0.3651,-0.3652,-0.3652,-0.3653,-0.3551,-0.3547,-0.3543,0,0,0,0,0,0,0,0,0,0,0,0,0,-0.3649,-0.3653,-0.3559,-0.3584,-0.3586,-0.3573,-0.3575,-0.3577,-0.3651,-0.3652,-0.3652,-0.3653,-0.3552,-0.3547,-0.3543,-0.3502,0,0,-0.3529,-0.3527,0,0,0,0,0,0,0,0,-0.365,-0.3648,-0.3582,-0.3582,-0.3584,-0.3598,-0.357,-0.3541,-0.3651,-0.3642,-0.3652,-0.3653,-0.3544,-0.3541,-0.3565,-0.3498,-0.3493,-0.3528,-0.3525,-0.3523,-0.3522,0,0,0,0,0,0,0,-0.365,-0.3648,-0.358,-0.358,-0.3581,-0.3614,-0.3616,-0.3567,-0.3599,-0.3643,-0.3645,-0.3622,-0.3547,-0.357,-0.3563,-0.3492,-0.3528,-0.3524,-0.3521,-0.352,-0.3444,-0.3445,0,0,0,0,0,0,-0.3613,-0.3647,-0.3579,-0.3579,-0.3602,-0.3611,-0.3613,-0.3605,-0.3603,-0.3599,-0.3622,-0.3625,-0.3578,-0.3568,-0.3559,-0.3572,-0.3523,-0.3519,-0.3516,-0.3443,-0.3444,-0.3445,0,0,0,0,0,0,-0.3616,-0.3608,-0.3578,-0.3601,-0.3597,-0.3606,-0.3598,-0.3605,-0.364,-0.3585,-0.3583,-0.3649,-0.3578,-0.3566,-0.3539,-0.3566,-0.3517,-0.3513,-0.3442,-0.3444,-0.3445,-0.3557,0,0,0,0,0,0,-0.3619,-0.3609,-0.3618,-0.3599,-0.3594,-0.3601,-0.3596,-0.3604,-0.3616,-0.3623,-0.3606,-0.3598,-0.3577,-0.3546,-0.3534,-0.3558,-0.3509,-0.3441,-0.3443,-0.3444,-0.3552,-0.3562,-0.357,0,0,0,0,0,-0.3623,-0.3642,-0.3619,-0.3611,-0.3597,-0.3601,-0.3606,-0.3623,-0.3617,-0.3655,-0.363,-0.3599,-0.3547,-0.3543,-0.3528,-0.3552,-0.3441,-0.3443,-0.3444,-0.3548,-0.356,-0.357,0,0,0,0,0,0,-0.3705,-0.3648,-0.3624,-0.3628,-0.3617,-0.3609,-0.3626,-0.3626,-0.3643,-0.3634,-0.3599,-0.359,-0.3588,-0.3541,-0.3537,-0.3535,-0.3491,-0.349,-0.3575,-0.3586,-0.3594,-0.3581,-0.3505,0,0,0,0,0,-0.3712,-0.3701,-0.3659,-0.3661,-0.3648,-0.3634,-0.3639,-0.3641,-0.363,-0.3642,-0.3623,-0.3593,-0.3582,-0.3561,-0.3545,-0.352,-0.3434,-0.3528,-0.3537,-0.3545,-0.3524,-0.3434,-0.3433,-0.3451,-0.3451,-0.3451,0,0,-0.3723,-0.3702,-0.3686,-0.3674,-0.3658,-0.3667,-0.3645,-0.3647,-0.3673,-0.3616,-0.3649,-0.3624,-0.3585,-0.359,-0.3582,-0.3552,-0.3493,-0.3547,-0.3555,-0.3529,-0.3436,-0.3434,-0.3432,-0.3452,-0.3452,-0.3452,0,0,-0.3755,-0.3733,-0.3734,-0.3726,-0.3698,-0.3699,-0.3697,-0.3685,-0.3707,-0.3711,-0.3691,-0.3677,-0.3649,-0.364,-0.3626,-0.3658,-0.3553,-0.3654,-0.3674,-0.3589,-0.3586,-0.3582,-0.3462,-0.3447,-0.3647,-0.3647,-0.3647,0,-0.3794,-0.3764,-0.3741,-0.3749,-0.3727,-0.3712,-0.371,-0.3745,-0.3737,-0.3721,-0.3733,-0.3689,-0.3678,-0.366,-0.3697,-0.368,-0.3589,-0.3644,-0.3599,-0.3594,-0.3588,-0.3465,-0.3447,-0.3652,-0.3652,-0.3651,-0.3651,0,-0.3803,-0.3794,-0.3793,-0.3787,-0.3789,-0.3779,-0.3782,-0.3802,-0.3803,-0.38,-0.3787,-0.3777,-0.3733,-0.3753,-0.3742,-0.3704,-0.3638,-0.3633,-0.3573,-0.3593,-0.3462,-0.3441,-0.366,-0.3658,-0.3657,-0.3655,0,0,-0.3827,-0.3808,-0.3798,-0.3777,-0.3788,-0.3774,-0.3824,-0.3821,-0.3804,-0.3836,-0.3796,-0.3837,-0.3797,-0.3778,-0.376,-0.3707,-0.3622,-0.3656,-0.3649,-0.3535,-0.3384,-0.3273,-0.3238,-0.36,-0.3597,-0.3595,-0.3305,0,-0.3831,-0.3829,-0.3826,-0.3813,-0.3789,-0.3792,-0.3823,-0.3826,-0.3829,-0.3803,-0.3798,-0.3768,-0.382,-0.3779,-0.375,-0.3652,-0.3571,-0.3698,-0.338,-0.3369,-0.3269,-0.3213,-0.311,-0.2837,-0.3284,-0.328,-0.3277,0,-0.3781,-0.3802,-0.3783,-0.3759,-0.3746,-0.3766,-0.3733,-0.3753,-0.3743,-0.3736,-0.3719,-0.3702,-0.3667,-0.3691,-0.3541,-0.361,-0.3499,-0.3425,-0.3411,-0.3247,-0.3219,-0.289,-0.2781,-0.2782,-0.3244,-0.3246,-0.3249,0,-0.3693,-0.3723,-0.3699,-0.3694,-0.3715,-0.371,-0.3717,-0.3714,-0.368,-0.3669,-0.3614,-0.3602,-0.3536,-0.3457,-0.337,-0.3424,-0.3152,-0.32,-0.2982,-0.2971,-0.2788,-0.2766,-0.2638,-0.3039,-0.3039,-0.304,-0.3041,0,-0.3619,-0.359,-0.3662,-0.3635,-0.36,-0.364,-0.3575,-0.3587,-0.3567,-0.3479,-0.3552,-0.3472,-0.3467,-0.3344,-0.3289,-0.3057,-0.3081,-0.2942,-0.288,-0.2824,-0.2809,-0.2725,-0.2781,-0.3029,-0.3032,-0.3034,-0.3036,0,-0.3462,-0.3513,-0.3473,-0.3526,-0.353,-0.3486,-0.346,-0.3401,-0.3434,-0.3317,-0.3303,-0.3308,-0.3163,-0.3117,-0.294,-0.2894,-0.2663,-0.2628,-0.2551,-0.2487,-0.2317,-0.2383,-0.2136,-0.2073,-0.2328,-0.2324,-0.232,0,-0.3356,-0.3335,-0.3349,-0.3317,-0.3335,-0.3304,-0.3247,-0.3294,-0.3236,-0.3199,-0.3111,-0.3004,-0.2876,-0.2613,-0.2519,-0.2331,-0.2404,-0.213,-0.2238,-0.2248,-0.2276,-0.235,-0.2324,-0.2026,-0.202,-0.2015,-0.2012,0,-0.3172,-0.3184,-0.3159,-0.3096,-0.3048,-0.298,-0.2939,-0.2897,-0.2919,-0.2873,-0.2769,-0.268,-0.2464,-0.2262,-0.2067,-0.1974,-0.2107,-0.2021,-0.2045,-0.2023,-0.2074,-0.2004,-0.2275,-0.1968,-0.1972,-0.1976,-0.1978,-0.198,-0.2998,-0.2935,-0.2894,-0.2801,-0.2741,-0.263,-0.2529,-0.254,-0.2443,-0.2345,-0.2402,-0.2229,-0.2114,-0.1837,-0.1741,-0.16,-0.1708,-0.1582,-0.1649,-0.1714,-0.1694,-0.1855,-0.1493,-0.1495,-0.1496,-0.1497,-0.1498,0,-0.2752,-0.2686,-0.2599,-0.2463,-0.2297,-0.2361,-0.2266,-0.2171,-0.2041,-0.1999,-0.1906,-0.177,-0.1583,-0.1521,-0.139,-0.1294,-0.1308,-0.128,-0.1393,-0.1374,-0.1489,-0.1523,-0.1136,-0.1136,-0.1136,-0.1136,-0.1136,-0.1136,-0.2617,-0.2427,-0.2367,-0.2021,-0.1946,-0.1712,-0.1633,-0.158,-0.1527,-0.1376,-0.1306,-0.1236,-0.1299,-0.1414,-0.1303,-0.1222,-0.1239,-0.1163,-0.1219,-0.1373,-0.141,-0.1445,-0.149,-0.1101,-0.1101,-0.1056,-0.1056,-0.1056]},{"header":{"parameterUnit":"m.s-1","parameterCategory":2,"la1":30.2991,"la2":30.254,"lo1":-89.0895,"lo2":-89.0444,"dy":0.0017,"dx":0.0017,"nx":28,"ny":28,"refTime":"2024-03-17T03:00:00:Z","depth":"0","parameterNumber":3,"parameterNumberName":"V-component_of_CURRENTS"},"data":[0,0,0,0,0,0,0,0,0,0,0,0,0,0,0,0,0,0,0,0,0,0,0,0,0,0,0,0,0,0,0,0,0,0,0,0,0,0,0,0,0,0,0,0,0,0,0,0,0,0,0,0,0,0,0,0,0,0,-0.0506,-0.0504,0,-0.0334,-0.0332,-0.033,-0.0253,-0.0253,-0.0253,-0.0253,-0.0062,-0.0057,-0.0052,0,0,0,0,0,0,0,0,0,0,0,0,0,-0.0755,-0.0751,-0.0506,-0.0504,-0.0501,-0.0334,-0.0332,-0.033,-0.0253,-0.0253,-0.0253,-0.0253,-0.0063,-0.0057,-0.0051,0,0,0,0,0,0,0,0,0,0,0,0,0,-0.0625,-0.075,-0.0507,-0.044,-0.0433,-0.0334,-0.0332,-0.0329,-0.0253,-0.0253,-0.0253,-0.0253,-0.0065,-0.0058,-0.0051,-0.0008,0,0,-0.0028,-0.0025,0,0,0,0,0,0,0,0,-0.0632,-0.0616,-0.0453,-0.0445,-0.0436,-0.0312,-0.0349,-0.0219,-0.0253,-0.0325,-0.0253,-0.0253,-0.0141,-0.0128,-0.0101,0.0001,0.001,-0.0027,-0.0023,-0.0019,-0.0017,0,0,0,0,0,0,0,-0.0642,-0.0623,-0.0442,-0.045,-0.044,-0.0414,-0.0396,-0.0325,-0.0239,-0.0319,-0.0312,-0.0287,-0.0137,-0.0108,-0.0096,0.0012,-0.0027,-0.0021,-0.0016,-0.0013,0.0147,0.0147,0,0,0,0,0,0,-0.0656,-0.0631,-0.0447,-0.0436,-0.0532,-0.0409,-0.0389,-0.0355,-0.024,-0.0221,-0.0287,-0.0284,-0.0121,-0.0105,-0.0089,-0.0058,-0.0019,-0.0012,-0.0008,0.0148,0.0147,0.0147,0,0,0,0,0,0,-0.0662,-0.0641,-0.0454,-0.0528,-0.0502,-0.0405,-0.0367,-0.0351,-0.0323,-0.0215,-0.0197,-0.0276,-0.012,-0.0099,-0.0031,-0.0049,-0.0009,-0.0002,0.0148,0.0148,0.0147,0.0021,0,0,0,0,0,0,-0.0669,-0.0644,-0.063,-0.0528,-0.0498,-0.0407,-0.0366,-0.0348,-0.0306,-0.0301,-0.0199,-0.0181,-0.0119,-0.0043,-0.0023,-0.0038,0.0004,0.0148,0.0148,0.0147,0.0026,0.0017,0.0009,0,0,0,0,0,-0.0679,-0.0663,-0.063,-0.0608,-0.048,-0.0406,-0.039,-0.0323,-0.0306,-0.0298,-0.023,-0.0184,-0.0032,-0.0036,-0.0014,-0.0027,0.0148,0.0148,0.0147,0.003,0.0018,0.0009,0,0,0,0,0,0,-0.0779,-0.065,-0.0613,-0.0562,-0.0494,-0.0392,-0.0372,-0.0331,-0.027,-0.0265,-0.0177,-0.0153,-0.0105,-0.0043,-0.005,0.0019,0.0062,0.0066,-0.0035,-0.0045,-0.0053,-0.0087,0.001,0,0,0,0,0,-0.0789,-0.0737,-0.0628,-0.0593,-0.0557,-0.0469,-0.0433,-0.0388,-0.0315,-0.0289,-0.0217,-0.0144,-0.0088,-0.005,0.0015,0.0062,0.0119,0.0066,0.0058,0.005,0.0038,0.0092,0.0087,0.0145,0.0145,0.0145,0,0,-0.0815,-0.0743,-0.0711,-0.061,-0.055,-0.0506,-0.0448,-0.0397,-0.0371,-0.0276,-0.0226,-0.0168,-0.0082,-0.0038,-0.0011,0.0011,0.0069,0.0049,0.0042,0.0034,0.0091,0.0085,0.008,0.0145,0.0145,0.0145,0,0,-0.0849,-0.078,-0.0747,-0.0689,-0.0599,-0.0543,-0.0534,-0.0435,-0.0402,-0.0342,-0.0281,-0.0241,-0.013,-0.009,-0.0053,-0.0066,0.002,-0.0039,-0.0104,-0.0052,-0.0057,-0.0061,0.0022,0.0027,-0.0041,-0.0041,-0.0041,0,-0.0901,-0.0831,-0.0735,-0.0696,-0.0661,-0.0567,-0.0547,-0.0493,-0.0392,-0.0377,-0.0342,-0.0229,-0.0163,-0.0129,-0.0137,-0.0089,-0.0028,-0.0078,-0.0066,-0.0069,-0.007,0.0016,0.0022,-0.0047,-0.0047,-0.0046,-0.0045,0,-0.0889,-0.0852,-0.0835,-0.0748,-0.0703,-0.0673,-0.0582,-0.0551,-0.0504,-0.0452,-0.041,-0.0324,-0.0264,-0.024,-0.0188,-0.0174,-0.0115,-0.0089,-0.005,-0.0085,0.001,0.0019,-0.0056,-0.0054,-0.0052,-0.0051,0,0,-0.0971,-0.0854,-0.0849,-0.0834,-0.0732,-0.0701,-0.0666,-0.0614,-0.0603,-0.0526,-0.0509,-0.044,-0.0402,-0.0359,-0.0296,-0.0254,-0.0211,-0.0183,-0.0177,-0.0116,-0.0064,0.0005,0.0023,-0.018,-0.0179,-0.0179,0.0012,0,-0.1006,-0.0971,-0.0889,-0.0876,-0.0858,-0.0776,-0.0749,-0.0694,-0.064,-0.0594,-0.0532,-0.0484,-0.0441,-0.0416,-0.0374,-0.0242,-0.0194,-0.0263,-0.0025,-0.0018,0.0034,0.0032,0.0084,0.026,0.0022,0.0023,0.0025,0,-0.1011,-0.0998,-0.099,-0.095,-0.0932,-0.0912,-0.0873,-0.0832,-0.0753,-0.0709,-0.0667,-0.0591,-0.0525,-0.0479,-0.0307,-0.0347,-0.0226,-0.0128,-0.0118,-0.0007,0.0067,0.0256,0.0287,0.0447,0.004,0.0039,0.0037,0,-0.1108,-0.1066,-0.1076,-0.1055,-0.0988,-0.099,-0.0958,-0.0887,-0.0857,-0.0784,-0.0747,-0.0661,-0.0582,-0.046,-0.0261,-0.0278,-0.0042,-0.0037,0.0137,0.0146,0.0259,0.0276,0.0456,0.0071,0.007,0.007,0.0069,0,-0.1165,-0.1172,-0.1129,-0.1132,-0.116,-0.1078,-0.1081,-0.1037,-0.0961,-0.0912,-0.0818,-0.0743,-0.0572,-0.0411,-0.0263,-0.0016,-0.0041,0.013,0.0192,0.022,0.0231,0.0432,0.0483,0.0077,0.0075,0.0074,0.0073,0,-0.1246,-0.1208,-0.1228,-0.1202,-0.1197,-0.1217,-0.1161,-0.1146,-0.1067,-0.0995,-0.0972,-0.0787,-0.0557,-0.0364,-0.0109,0.001,0.033,0.0304,0.0342,0.0403,0.0678,0.0719,0.0961,0.1066,0.0512,0.0515,0.0517,0,-0.1272,-0.1291,-0.1298,-0.1311,-0.1301,-0.1308,-0.129,-0.1218,-0.1176,-0.1002,-0.0957,-0.0731,-0.0528,-0.0127,0.0122,0.0404,0.0502,0.0598,0.0547,0.0707,0.08,0.0819,0.0889,0.0669,0.0672,0.0675,0.0677,0,-0.1348,-0.135,-0.1366,-0.1398,-0.1402,-0.1393,-0.1359,-0.134,-0.1208,-0.1112,-0.0898,-0.0726,-0.0318,0.0051,0.04,0.055,0.0719,0.0662,0.082,0.0925,0.0968,0.1094,0.0549,0.0701,0.0699,0.0697,0.0696,0.0695,-0.1398,-0.1435,-0.1446,-0.1463,-0.1464,-0.143,-0.1403,-0.1308,-0.1204,-0.0938,-0.0826,-0.0436,-0.0024,0.0493,0.0673,0.1038,0.0963,0.1122,0.1162,0.1169,0.1252,0.0767,0.0982,0.0982,0.0981,0.098,0.098,0,-0.145,-0.1462,-0.1495,-0.1494,-0.1476,-0.1466,-0.1394,-0.1301,-0.112,-0.078,-0.0521,0.0062,0.0496,0.0888,0.133,0.1519,0.1545,0.1601,0.1639,0.1688,0.1271,0.1258,0.1554,0.1554,0.1554,0.1553,0.1553,0.1553,-0.1475,-0.1501,-0.15,-0.1469,-0.1459,-0.1396,-0.1337,-0.1166,-0.0906,-0.0352,0.0122,0.0465,0.0896,0.1507,0.1918,0.195,0.2121,0.2097,0.2187,0.189,0.1848,0.1807,0.1809,0.2216,0.2217,0.2598,0.2602,0.2605]}],[{"header":{"parameterUnit":"m.s-1","parameterCategory":2,"la1":30.2991,"la2":30.254,"lo1":-89.0895,"lo2":-89.0444,"dy":0.0017,"dx":0.0017,"nx":28,"ny":28,"refTime":"2024-03-17T03:00:00:Z","depth":"2","parameterNumber":2,"parameterNumberName":"U-component_of_CURRENTS"},"data":[0,0,0,0,0,0,0,0,0,0,0,0,0,0,0,0,0,0,0,0,0,0,0,0,0,0,0,0,0,0,0,0,0,0,0,0,0,0,0,0,0,0,0,0,0,0,0,0,0,0,0,0,0,0,0,0,0,0,-0.2231,-0.2232,0,-0.2284,-0.2284,-0.2284,-0.2241,-0.224,-0.2239,-0.2238,-0.225,-0.2251,-0.2252,0,0,0,0,0,0,0,0,0,0,0,0,0,-0.2085,-0.2087,-0.2231,-0.2232,-0.2233,-0.2284,-0.2284,-0.2284,-0.2241,-0.224,-0.2239,-0.2237,-0.2249,-0.2251,-0.2252,0,0,0,0,0,0,0,0,0,0,0,0,0,-0.2137,-0.2088,-0.2231,-0.2224,-0.2224,-0.2284,-0.2284,-0.2284,-0.2242,-0.224,-0.2238,-0.2237,-0.2249,-0.2251,-0.2253,-0.2299,0,0,-0.2259,-0.226,0,0,0,0,0,0,0,0,-0.2134,-0.2142,-0.2223,-0.2224,-0.2225,-0.226,-0.2237,-0.2289,-0.2242,-0.2227,-0.2238,-0.2236,-0.2255,-0.2257,-0.2261,-0.23,-0.23,-0.2259,-0.226,-0.2261,-0.2262,0,0,0,0,0,0,0,-0.2131,-0.2139,-0.2244,-0.2225,-0.2226,-0.2216,-0.222,-0.2246,-0.2244,-0.2229,-0.2227,-0.2245,-0.2254,-0.2259,-0.2261,-0.2301,-0.2259,-0.2261,-0.2262,-0.2263,-0.2325,-0.2326,0,0,0,0,0,0,-0.2142,-0.2136,-0.2243,-0.2247,-0.2183,-0.222,-0.2225,-0.2245,-0.2245,-0.2245,-0.2247,-0.2243,-0.2256,-0.2258,-0.2261,-0.2287,-0.2261,-0.2263,-0.2264,-0.2325,-0.2325,-0.2326,0,0,0,0,0,0,-0.2138,-0.2151,-0.2241,-0.2198,-0.2209,-0.2225,-0.2247,-0.2247,-0.2255,-0.226,-0.2258,-0.2257,-0.2255,-0.2258,-0.2277,-0.2288,-0.2264,-0.2266,-0.2324,-0.2325,-0.2326,-0.2357,0,0,0,0,0,0,-0.2134,-0.2149,-0.2166,-0.2199,-0.2213,-0.2272,-0.225,-0.225,-0.2273,-0.2268,-0.2269,-0.2267,-0.2254,-0.2274,-0.2279,-0.229,-0.2267,-0.2324,-0.2325,-0.2325,-0.2356,-0.2359,-0.2362,0,0,0,0,0,-0.2128,-0.2156,-0.2167,-0.218,-0.2236,-0.2274,-0.2279,-0.2279,-0.2275,-0.2279,-0.2276,-0.2267,-0.2281,-0.2276,-0.2282,-0.2294,-0.2323,-0.2324,-0.2325,-0.2354,-0.2358,-0.2362,0,0,0,0,0,0,-0.2081,-0.2157,-0.2168,-0.2211,-0.2242,-0.2269,-0.2282,-0.2292,-0.2297,-0.2295,-0.2285,-0.2284,-0.2299,-0.2299,-0.2293,-0.2312,-0.2297,-0.23,-0.2317,-0.2321,-0.2324,-0.2317,-0.2269,0,0,0,0,0,-0.2089,-0.2142,-0.2188,-0.2223,-0.224,-0.2266,-0.2284,-0.2293,-0.2308,-0.2308,-0.2311,-0.231,-0.231,-0.2317,-0.2318,-0.2346,-0.2329,-0.2353,-0.2356,-0.2358,-0.2356,-0.2353,-0.2356,-0.2329,-0.2329,-0.2329,0,0,-0.2081,-0.2132,-0.2159,-0.222,-0.2241,-0.2269,-0.2269,-0.2306,-0.2322,-0.2313,-0.2328,-0.2327,-0.2319,-0.2332,-0.2339,-0.2333,-0.2354,-0.236,-0.2362,-0.2358,-0.2354,-0.2357,-0.2359,-0.233,-0.233,-0.2329,0,0,-0.2092,-0.2134,-0.2177,-0.2208,-0.2264,-0.2283,-0.2299,-0.2337,-0.2338,-0.2368,-0.2352,-0.2359,-0.2375,-0.2363,-0.236,-0.2387,-0.2368,-0.239,-0.2406,-0.2404,-0.2406,-0.2408,-0.2376,-0.2374,-0.2394,-0.2394,-0.2394,0,-0.2079,-0.2138,-0.2189,-0.2228,-0.2256,-0.229,-0.2319,-0.2334,-0.2372,-0.2382,-0.2372,-0.2386,-0.2383,-0.2388,-0.2388,-0.2394,-0.2381,-0.2394,-0.2408,-0.241,-0.2411,-0.2377,-0.2375,-0.2396,-0.2396,-0.2396,-0.2396,0,-0.2113,-0.2159,-0.2182,-0.2249,-0.2281,-0.2316,-0.2351,-0.2373,-0.2389,-0.2407,-0.2422,-0.2415,-0.242,-0.2421,-0.2413,-0.2423,-0.2406,-0.2411,-0.2399,-0.2415,-0.2379,-0.2376,-0.2398,-0.2398,-0.2397,-0.2397,0,0,-0.2076,-0.2188,-0.2197,-0.2227,-0.2298,-0.2327,-0.2358,-0.2397,-0.2418,-0.2437,-0.2452,-0.245,-0.2455,-0.2451,-0.2444,-0.2442,-0.2435,-0.2434,-0.2433,-0.2401,-0.241,-0.2315,-0.2303,-0.2449,-0.2449,-0.2449,-0.2376,0,-0.2079,-0.2168,-0.2221,-0.2275,-0.2306,-0.2351,-0.2377,-0.2419,-0.2443,-0.2466,-0.2463,-0.2474,-0.2464,-0.2467,-0.2465,-0.2449,-0.2432,-0.2453,-0.2399,-0.2397,-0.2311,-0.2298,-0.2134,-0.2048,-0.2373,-0.2373,-0.2372,0,-0.209,-0.2142,-0.2213,-0.2292,-0.2309,-0.2342,-0.2396,-0.2429,-0.247,-0.2487,-0.2502,-0.2506,-0.2504,-0.2491,-0.246,-0.2477,-0.2443,-0.2421,-0.2418,-0.2316,-0.2297,-0.2087,-0.2031,-0.2368,-0.2368,-0.2368,-0.2369,0,-0.2047,-0.2139,-0.2201,-0.2226,-0.2311,-0.2335,-0.2377,-0.2433,-0.2455,-0.2499,-0.2512,-0.2524,-0.2511,-0.2493,-0.2443,-0.2461,-0.2392,-0.2413,-0.2285,-0.2277,-0.2117,-0.2095,-0.2378,-0.2378,-0.2378,-0.2378,-0.2378,0,-0.2045,-0.2077,-0.2184,-0.2204,-0.2243,-0.2316,-0.2357,-0.24,-0.2451,-0.2466,-0.2516,-0.2506,-0.2513,-0.2475,-0.2443,-0.2338,-0.2388,-0.2272,-0.2252,-0.2121,-0.2101,-0.237,-0.237,-0.2375,-0.2376,-0.2376,-0.2377,0,-0.1988,-0.2076,-0.2114,-0.2199,-0.2227,-0.2249,-0.2332,-0.2353,-0.2419,-0.2434,-0.2444,-0.2481,-0.243,-0.2404,-0.2355,-0.231,-0.2242,-0.2188,-0.2016,-0.1976,-0.2131,-0.2134,-0.2053,-0.2049,-0.2045,-0.2043,-0.204,0,-0.1988,-0.1999,-0.2084,-0.2105,-0.214,-0.219,-0.222,-0.2313,-0.2332,-0.2397,-0.2384,-0.2368,-0.2305,-0.22,-0.2117,-0.2016,-0.2113,-0.1829,-0.1835,-0.2108,-0.2098,-0.2106,-0.2113,-0.163,-0.1624,-0.162,-0.1616,0,-0.191,-0.1934,-0.1965,-0.2008,-0.2046,-0.2083,-0.2135,-0.2148,-0.2237,-0.2237,-0.2215,-0.2176,-0.2083,-0.1903,-0.1797,-0.1733,-0.1841,-0.1733,-0.2053,-0.1743,-0.1705,-0.1697,-0.1718,-0.1576,-0.158,-0.1583,-0.1585,-0.1587,-0.1826,-0.1823,-0.1864,-0.1889,-0.1931,-0.1946,-0.192,-0.197,-0.1961,-0.1924,-0.1986,-0.1857,-0.1836,-0.1567,-0.1471,-0.1406,-0.1541,-0.1495,-0.1511,-0.1531,-0.1501,-0.146,-0.1277,-0.1279,-0.1281,-0.1283,-0.1284,0,-0.1702,-0.1717,-0.1741,-0.1761,-0.1739,-0.1809,-0.1826,-0.1764,-0.1686,-0.1677,-0.1608,-0.1408,-0.1274,-0.1259,-0.1084,-0.1058,-0.1069,-0.1027,-0.1051,-0.109,-0.1125,-0.1078,-0.0739,-0.0738,-0.0736,-0.0735,0,0,-0.1631,-0.161,-0.1626,-0.1555,-0.1561,-0.147,-0.1441,-0.1376,-0.1333,-0.1213,-0.1129,-0.1178,-0.1202,-0.0967,-0.0916,-0.0797,-0.0936,-0.0752,-0.1186,-0.125,-0.1284,-0.1386,-0.1355,0,0,0,0,0]},{"header":{"parameterUnit":"m.s-1","parameterCategory":2,"la1":30.2991,"la2":30.254,"lo1":-89.0895,"lo2":-89.0444,"dy":0.0017,"dx":0.0017,"nx":28,"ny":28,"refTime":"2024-03-17T03:00:00:Z","depth":"2","parameterNumber":3,"parameterNumberName":"V-component_of_CURRENTS"},"data":[0,0,0,0,0,0,0,0,0,0,0,0,0,0,0,0,0,0,0,0,0,0,0,0,0,0,0,0,0,0,0,0,0,0,0,0,0,0,0,0,0,0,0,0,0,0,0,0,0,0,0,0,0,0,0,0,0,0,-0.0391,-0.039,0,-0.0309,-0.0308,-0.0308,-0.0254,-0.0254,-0.0254,-0.0253,-0.0121,-0.0118,-0.0115,0,0,0,0,0,0,0,0,0,0,0,0,0,-0.0413,-0.0413,-0.0391,-0.039,-0.0389,-0.031,-0.0308,-0.0307,-0.0254,-0.0254,-0.0254,-0.0253,-0.0122,-0.0118,-0.0115,0,0,0,0,0,0,0,0,0,0,0,0,0,-0.0374,-0.0413,-0.0391,-0.0353,-0.0349,-0.031,-0.0308,-0.0307,-0.0255,-0.0254,-0.0254,-0.0253,-0.0124,-0.0119,-0.0114,-0.0094,0,0,-0.0099,-0.0097,0,0,0,0,0,0,0,0,-0.0377,-0.0374,-0.036,-0.0356,-0.0351,-0.0292,-0.0267,-0.0233,-0.0255,-0.029,-0.0253,-0.0253,-0.0174,-0.0165,-0.0151,-0.0088,-0.0082,-0.0099,-0.0096,-0.0094,-0.0092,0,0,0,0,0,0,0,-0.038,-0.0376,-0.0359,-0.0359,-0.0354,-0.031,-0.0305,-0.026,-0.0235,-0.0287,-0.0283,-0.0274,-0.0171,-0.0156,-0.0147,-0.008,-0.0099,-0.0095,-0.0092,-0.009,0.0021,0.0021,0,0,0,0,0,0,-0.0396,-0.038,-0.0361,-0.0356,-0.0363,-0.031,-0.0304,-0.0311,-0.0236,-0.0225,-0.0275,-0.0272,-0.0165,-0.0153,-0.0143,-0.0106,-0.0094,-0.0089,-0.0087,0.0021,0.0021,0.0021,0,0,0,0,0,0,-0.0397,-0.0395,-0.0364,-0.0365,-0.0358,-0.0311,-0.0319,-0.031,-0.0294,-0.0228,-0.0215,-0.0268,-0.0164,-0.0149,-0.0107,-0.0101,-0.0087,-0.0083,0.0021,0.0021,0.0021,-0.0038,0,0,0,0,0,0,-0.0398,-0.0397,-0.0403,-0.0367,-0.0359,-0.0348,-0.0319,-0.0309,-0.0289,-0.0285,-0.0217,-0.0205,-0.0162,-0.0114,-0.0102,-0.0094,-0.0079,0.0021,0.0021,0.0021,-0.0036,-0.004,-0.0043,0,0,0,0,0,-0.0399,-0.0417,-0.0405,-0.0402,-0.0372,-0.0349,-0.0341,-0.0304,-0.029,-0.0287,-0.0241,-0.0207,-0.0105,-0.0111,-0.0096,-0.0086,0.0021,0.0021,0.0021,-0.0034,-0.0039,-0.0043,0,0,0,0,0,0,-0.0428,-0.0412,-0.0398,-0.0409,-0.0383,-0.034,-0.0335,-0.031,-0.0273,-0.0268,-0.0206,-0.019,-0.0153,-0.0113,-0.0121,-0.0055,-0.0036,-0.0033,-0.0083,-0.0087,-0.009,-0.0101,-0.0075,0,0,0,0,0,-0.0439,-0.0451,-0.0419,-0.0428,-0.0419,-0.0377,-0.0362,-0.034,-0.0303,-0.0286,-0.0237,-0.0186,-0.0141,-0.011,-0.0069,-0.003,0.001,-0.0014,-0.0018,-0.0021,-0.002,0.0039,0.0041,0.0021,0.0021,0.0021,0,0,-0.0455,-0.0445,-0.0453,-0.0435,-0.0412,-0.0403,-0.0368,-0.0354,-0.034,-0.0277,-0.0244,-0.02,-0.0136,-0.0097,-0.0075,-0.0061,0.0005,-0.0021,-0.0024,-0.0021,0.004,0.0042,0.0044,0.0021,0.0021,0.0021,0,0,-0.0491,-0.0483,-0.0502,-0.0483,-0.0455,-0.0427,-0.0427,-0.0386,-0.0362,-0.0328,-0.0279,-0.0232,-0.0166,-0.0114,-0.008,-0.0076,-0.0023,-0.0065,-0.008,-0.0023,-0.0021,-0.0019,0.0027,0.0035,-0.0058,-0.0058,-0.0058,0,-0.0506,-0.0525,-0.0501,-0.0504,-0.049,-0.0443,-0.0448,-0.0416,-0.0364,-0.034,-0.0328,-0.0222,-0.0171,-0.0107,-0.0108,-0.0083,-0.0048,-0.0071,-0.0028,-0.0025,-0.0021,0.0026,0.0034,-0.0061,-0.0061,-0.0061,-0.006,0,-0.0551,-0.0557,-0.0565,-0.0555,-0.0537,-0.0535,-0.0489,-0.0464,-0.043,-0.0389,-0.033,-0.026,-0.0193,-0.017,-0.0137,-0.0083,-0.0067,-0.0048,-0.0021,-0.0023,0.0027,0.0036,-0.0065,-0.0064,-0.0063,-0.0063,0,0,-0.0605,-0.0601,-0.0602,-0.0602,-0.0564,-0.0556,-0.0529,-0.0487,-0.0465,-0.0406,-0.0366,-0.0287,-0.0245,-0.0204,-0.0148,-0.0095,-0.0043,-0.0066,-0.0062,-0.0027,0.0075,0.0104,0.0118,-0.0019,-0.0018,-0.0016,0.0097,0,-0.0644,-0.0672,-0.065,-0.066,-0.0667,-0.061,-0.0587,-0.0539,-0.0489,-0.0438,-0.0352,-0.0299,-0.0257,-0.0226,-0.0166,-0.0075,-0.0019,-0.0076,0.0078,0.0083,0.0104,0.013,0.0112,0.0213,0.0107,0.0109,0.011,0,-0.0694,-0.0702,-0.073,-0.071,-0.0707,-0.0701,-0.0652,-0.0625,-0.0536,-0.0493,-0.0419,-0.0351,-0.0257,-0.0228,-0.007,-0.0111,-0.0025,0.0045,0.0051,0.0107,0.013,0.0202,0.0236,0.0127,0.0126,0.0125,0.0123,0,-0.0753,-0.0756,-0.0782,-0.0776,-0.0746,-0.074,-0.0719,-0.0647,-0.0617,-0.0529,-0.0494,-0.0376,-0.0312,-0.0194,-0.0046,-0.0058,0.0127,0.0132,0.0242,0.0245,0.0276,0.0279,0.0245,0.0245,0.0245,0.0244,0.0244,0,-0.0806,-0.0821,-0.0816,-0.0828,-0.0846,-0.0801,-0.0797,-0.0751,-0.0679,-0.0637,-0.0533,-0.0465,-0.0301,-0.0171,-0.0049,0.0132,0.0131,0.0249,0.0283,0.0254,0.0254,0.0215,0.021,0.0249,0.0248,0.0247,0.0246,0,-0.0865,-0.0864,-0.089,-0.0878,-0.0879,-0.0893,-0.0863,-0.0849,-0.0775,-0.0715,-0.0687,-0.0524,-0.0349,-0.0178,0.0032,0.0133,0.0296,0.0361,0.0311,0.0338,0.0372,0.0363,0.049,0.0492,0.0494,0.0495,0.0496,0,-0.0901,-0.0921,-0.094,-0.0963,-0.0963,-0.0973,-0.0974,-0.091,-0.088,-0.0739,-0.0706,-0.0526,-0.0371,-0.006,0.015,0.0377,0.0369,0.0478,0.0456,0.0381,0.0401,0.0389,0.0378,0.0473,0.0474,0.0475,0.0476,0,-0.0953,-0.0959,-0.098,-0.1033,-0.1056,-0.1068,-0.1056,-0.1037,-0.0937,-0.0855,-0.0696,-0.0561,-0.0258,0.001,0.0287,0.0407,0.0436,0.0501,0.046,0.0407,0.0373,0.039,0.0378,0.0483,0.0482,0.0481,0.0481,0.0481,-0.0984,-0.1018,-0.1051,-0.1095,-0.1125,-0.1133,-0.1123,-0.1065,-0.0987,-0.081,-0.0692,-0.0446,-0.0219,0.0206,0.0389,0.0546,0.0536,0.0573,0.0567,0.0562,0.0533,0.0503,0.0632,0.0632,0.0632,0.0632,0.0632,0,-0.102,-0.1055,-0.1107,-0.1155,-0.1188,-0.1187,-0.1151,-0.109,-0.0968,-0.0786,-0.0598,-0.0294,-0.0002,0.0228,0.0496,0.0642,0.0611,0.0652,0.0589,0.0582,0.0575,0.0544,0.0647,0.0648,0.0648,0.0649,0,0,-0.1042,-0.1099,-0.1127,-0.1192,-0.1219,-0.1215,-0.118,-0.1048,-0.0898,-0.0671,-0.0471,-0.0242,0.0029,0.0227,0.0406,0.054,0.0512,0.0539,0.0511,0.0406,0.0398,0.0516,0.0458,0,0,0,0,0]}],[{"header":{"parameterUnit":"m.s-1","parameterCategory":2,"la1":30.2991,"la2":30.254,"lo1":-89.0895,"lo2":-89.0444,"dy":0.0017,"dx":0.0017,"nx":28,"ny":28,"refTime":"2024-03-17T03:00:00:Z","depth":"4","parameterNumber":2,"parameterNumberName":"U-component_of_CURRENTS"},"data":[0,0,0,0,0,0,0,0,0,0,0,0,0,0,0,0,0,0,0,0,0,0,0,0,0,0,0,0,0,0,0,0,0,0,0,0,0,0,0,0,0,0,0,0,0,0,0,0,0,0,0,0,0,0,0,0,0,0,-0.1415,-0.1415,0,-0.1475,-0.1475,-0.1476,-0.1508,-0.1508,-0.1508,-0.1508,-0.1569,-0.157,-0.1572,0,0,0,0,0,0,0,0,0,0,0,0,0,-0.131,-0.1311,-0.1415,-0.1416,-0.1416,-0.1475,-0.1475,-0.1476,-0.1508,-0.1508,-0.1508,-0.1508,-0.1568,-0.157,-0.1572,0,0,0,0,0,0,0,0,0,0,0,0,0,-0.136,-0.1312,-0.1415,-0.144,-0.1443,-0.1474,-0.1475,-0.1476,-0.1508,-0.1508,-0.1508,-0.1508,-0.1568,-0.157,-0.1572,-0.1581,0,0,-0.1579,-0.158,0,0,0,0,0,0,0,0,-0.1357,-0.1364,-0.1435,-0.1438,-0.1442,-0.1485,-0.1461,-0.1512,-0.1507,-0.1482,-0.1508,-0.1508,-0.1541,-0.1546,-0.1555,-0.1584,-0.1586,-0.1579,-0.158,-0.1581,-0.1582,0,0,0,0,0,0,0,-0.1354,-0.1361,-0.1437,-0.1436,-0.144,-0.1442,-0.145,-0.147,-0.1509,-0.1484,-0.1487,-0.1495,-0.1543,-0.1553,-0.1557,-0.1587,-0.1579,-0.1581,-0.1582,-0.1583,-0.169,-0.1692,0,0,0,0,0,0,-0.1349,-0.1358,-0.1435,-0.1439,-0.14,-0.1444,-0.1452,-0.147,-0.1509,-0.1515,-0.1495,-0.1496,-0.1549,-0.1554,-0.1559,-0.1632,-0.1581,-0.1583,-0.1585,-0.1689,-0.1691,-0.1692,0,0,0,0,0,0,-0.1347,-0.1356,-0.1433,-0.14,-0.141,-0.1446,-0.1465,-0.1471,-0.1506,-0.1517,-0.1523,-0.1527,-0.1549,-0.1556,-0.1601,-0.1633,-0.1584,-0.1586,-0.1687,-0.1689,-0.1691,-0.1741,0,0,0,0,0,0,-0.1344,-0.1355,-0.1374,-0.14,-0.1412,-0.1469,-0.1465,-0.1472,-0.151,-0.1513,-0.1546,-0.155,-0.155,-0.1598,-0.1604,-0.1635,-0.1588,-0.1685,-0.1688,-0.1691,-0.1737,-0.1744,-0.175,0,0,0,0,0,-0.134,-0.1362,-0.1375,-0.1385,-0.1435,-0.147,-0.1477,-0.1501,-0.1511,-0.1532,-0.1557,-0.1551,-0.162,-0.1601,-0.1607,-0.164,-0.1684,-0.1687,-0.169,-0.1734,-0.1743,-0.175,0,0,0,0,0,0,-0.1322,-0.1368,-0.1383,-0.1417,-0.145,-0.1476,-0.15,-0.1517,-0.1554,-0.1563,-0.1571,-0.1578,-0.1628,-0.163,-0.1609,-0.1679,-0.165,-0.1655,-0.1682,-0.169,-0.1697,-0.1692,-0.159,0,0,0,0,0,-0.1328,-0.1359,-0.1398,-0.1426,-0.1448,-0.148,-0.1501,-0.1521,-0.1551,-0.1568,-0.1593,-0.1619,-0.1643,-0.1664,-0.1683,-0.1725,-0.1712,-0.175,-0.1757,-0.1762,-0.1764,-0.1777,-0.1785,-0.1703,-0.1703,-0.1703,0,0,-0.1327,-0.1357,-0.1374,-0.1425,-0.1454,-0.1491,-0.1494,-0.1536,-0.1569,-0.1569,-0.1628,-0.1645,-0.166,-0.1704,-0.1727,-0.1713,-0.1777,-0.1767,-0.1771,-0.177,-0.1782,-0.1789,-0.1796,-0.1706,-0.1705,-0.1705,0,0,-0.1337,-0.1373,-0.1404,-0.1439,-0.1491,-0.1512,-0.1531,-0.1579,-0.1606,-0.1659,-0.1666,-0.1704,-0.1748,-0.1763,-0.1775,-0.1832,-0.1811,-0.1844,-0.1878,-0.1891,-0.1898,-0.1903,-0.1886,-0.1889,-0.1849,-0.1849,-0.1849,0,-0.1336,-0.1381,-0.1417,-0.1459,-0.149,-0.1526,-0.1566,-0.1599,-0.1655,-0.1683,-0.1686,-0.1759,-0.1773,-0.1821,-0.1841,-0.1847,-0.1841,-0.1845,-0.1899,-0.1904,-0.1909,-0.189,-0.1893,-0.1852,-0.1851,-0.1851,-0.1851,0,-0.1365,-0.1413,-0.1436,-0.1501,-0.1539,-0.158,-0.1629,-0.1675,-0.1711,-0.174,-0.1805,-0.1826,-0.1866,-0.1881,-0.188,-0.1929,-0.1907,-0.1903,-0.1875,-0.192,-0.1897,-0.1899,-0.1856,-0.1855,-0.1854,-0.1853,0,0,-0.1329,-0.1437,-0.1447,-0.1492,-0.1568,-0.1601,-0.1664,-0.1727,-0.1773,-0.1823,-0.1876,-0.1923,-0.1936,-0.1949,-0.1958,-0.1974,-0.1999,-0.1959,-0.1958,-0.1933,-0.201,-0.1857,-0.1844,-0.2008,-0.2009,-0.2009,-0.1975,0,-0.1343,-0.1429,-0.1476,-0.1554,-0.1603,-0.1661,-0.1716,-0.1777,-0.1827,-0.1888,-0.1918,-0.1969,-0.1961,-0.1987,-0.2004,-0.2006,-0.201,-0.2007,-0.1976,-0.1974,-0.1827,-0.1844,-0.2013,-0.1977,-0.1977,-0.1978,-0.1978,0,-0.1346,-0.141,-0.1495,-0.1598,-0.1625,-0.1676,-0.1773,-0.1826,-0.1908,-0.1948,-0.1999,-0.2021,-0.2061,-0.2044,-0.2059,-0.2059,-0.2038,-0.2029,-0.2027,-0.1868,-0.1826,-0.1926,-0.1982,-0.1982,-0.1981,-0.1981,-0.1981,0,-0.1302,-0.1415,-0.1487,-0.1524,-0.1645,-0.1697,-0.1757,-0.1848,-0.1896,-0.1987,-0.2023,-0.2072,-0.2093,-0.2094,-0.2066,-0.2074,-0.2058,-0.2064,-0.1902,-0.189,-0.2017,-0.2011,-0.2065,-0.2065,-0.2065,-0.2065,-0.2065,0,-0.1285,-0.1344,-0.1481,-0.1523,-0.1605,-0.1692,-0.1776,-0.1845,-0.1933,-0.1976,-0.2048,-0.2065,-0.2108,-0.2098,-0.2077,-0.1976,-0.2062,-0.1898,-0.1872,-0.2037,-0.2034,-0.2017,-0.2012,-0.2064,-0.2064,-0.2064,-0.2064,0,-0.1223,-0.1316,-0.1406,-0.1547,-0.1592,-0.1651,-0.1777,-0.1825,-0.1922,-0.1976,-0.2003,-0.2065,-0.2038,-0.2041,-0.2027,-0.1961,-0.1904,-0.1846,-0.1999,-0.1983,-0.1728,-0.1727,-0.167,-0.1665,-0.166,-0.1656,-0.1653,0,-0.1201,-0.1244,-0.1405,-0.1458,-0.1528,-0.1628,-0.1685,-0.1804,-0.1845,-0.1946,-0.195,-0.1966,-0.198,-0.1821,-0.1855,-0.1782,-0.1759,-0.1727,-0.1749,-0.1708,-0.1689,-0.1695,-0.1699,-0.1645,-0.1644,-0.1642,-0.1641,0,-0.1143,-0.1211,-0.1286,-0.1396,-0.1477,-0.1551,-0.1641,-0.1659,-0.1771,-0.1872,-0.1827,-0.1795,-0.1748,-0.1709,-0.1647,-0.1608,-0.1756,-0.1677,-0.1688,-0.1707,-0.1676,-0.1663,-0.1674,-0.1624,-0.1627,-0.1628,-0.1629,0,-0.1087,-0.1126,-0.1227,-0.131,-0.1406,-0.1443,-0.1508,-0.1536,-0.1582,-0.169,-0.1663,-0.1673,-0.172,-0.1615,-0.157,-0.1503,-0.1488,-0.1457,-0.1479,-0.1498,-0.1456,-0.1392,-0.122,0,0,0,0,0,-0.1016,-0.1052,-0.1129,-0.1214,-0.13,-0.1345,-0.146,-0.1521,-0.1627,-0.1544,-0.1596,-0.1538,-0.1456,-0.147,-0.1359,-0.1503,-0.1506,-0.1372,-0.1486,-0.1532,-0.1551,-0.1517,0,0,0,0,0,0,-0.0964,-0.1036,-0.1088,-0.1105,-0.1133,-0.1203,-0.1265,-0.1341,-0.1305,-0.1409,-0.136,-0.1435,-0.1368,-0.1466,-0.1316,-0.1319,-0.136,-0.1387,-0.1383,-0.1521,-0.1539,-0.1554,-0.1526,0,0,0,0,0]},{"header":{"parameterUnit":"m.s-1","parameterCategory":2,"la1":30.2991,"la2":30.254,"lo1":-89.0895,"lo2":-89.0444,"dy":0.0017,"dx":0.0017,"nx":28,"ny":28,"refTime":"2024-03-17T03:00:00:Z","depth":"4","parameterNumber":3,"parameterNumberName":"V-component_of_CURRENTS"},"data":[0,0,0,0,0,0,0,0,0,0,0,0,0,0,0,0,0,0,0,0,0,0,0,0,0,0,0,0,0,0,0,0,0,0,0,0,0,0,0,0,0,0,0,0,0,0,0,0,0,0,0,0,0,0,0,0,0,0,-0.0309,-0.0308,0,-0.027,-0.027,-0.027,-0.0244,-0.0244,-0.0244,-0.0243,-0.0163,-0.0161,-0.0159,0,0,0,0,0,0,0,0,0,0,0,0,0,-0.0299,-0.0299,-0.0309,-0.0308,-0.0308,-0.027,-0.027,-0.027,-0.0244,-0.0244,-0.0244,-0.0243,-0.0163,-0.0161,-0.0159,0,0,0,0,0,0,0,0,0,0,0,0,0,-0.0287,-0.03,-0.0309,-0.029,-0.0288,-0.0271,-0.027,-0.0269,-0.0244,-0.0244,-0.0243,-0.0243,-0.0164,-0.0161,-0.0158,-0.0147,0,0,-0.0149,-0.0148,0,0,0,0,0,0,0,0,-0.0287,-0.0287,-0.0293,-0.0291,-0.0289,-0.0261,-0.0237,-0.0226,-0.0244,-0.0261,-0.0243,-0.0243,-0.0192,-0.0186,-0.0181,-0.0143,-0.0139,-0.0149,-0.0147,-0.0146,-0.0145,0,0,0,0,0,0,0,-0.0288,-0.0288,-0.0294,-0.0293,-0.029,-0.0263,-0.0261,-0.0235,-0.0228,-0.026,-0.0258,-0.0253,-0.019,-0.0184,-0.0179,-0.0138,-0.0149,-0.0146,-0.0145,-0.0144,-0.0082,-0.0082,0,0,0,0,0,0,-0.0296,-0.029,-0.0295,-0.0293,-0.0287,-0.0263,-0.0262,-0.0271,-0.0229,-0.0223,-0.0253,-0.0252,-0.0189,-0.0182,-0.0176,-0.0155,-0.0146,-0.0143,-0.0142,-0.0081,-0.0082,-0.0082,0,0,0,0,0,0,-0.0296,-0.0298,-0.0297,-0.0289,-0.0287,-0.0264,-0.0274,-0.027,-0.0266,-0.0225,-0.0218,-0.0254,-0.0189,-0.018,-0.0158,-0.0152,-0.0142,-0.0139,-0.0081,-0.0082,-0.0082,-0.0117,0,0,0,0,0,0,-0.0296,-0.0298,-0.0307,-0.029,-0.0288,-0.0294,-0.0275,-0.027,-0.0263,-0.0261,-0.0223,-0.0215,-0.0188,-0.0163,-0.0155,-0.0148,-0.0137,-0.0081,-0.0081,-0.0082,-0.0116,-0.0118,-0.0121,0,0,0,0,0,-0.0296,-0.0314,-0.0308,-0.0308,-0.0301,-0.0294,-0.0291,-0.0273,-0.0264,-0.0267,-0.0241,-0.0216,-0.0159,-0.0161,-0.0152,-0.0143,-0.0081,-0.0081,-0.0082,-0.0115,-0.0118,-0.0121,0,0,0,0,0,0,-0.0314,-0.0312,-0.0306,-0.0322,-0.0311,-0.029,-0.0291,-0.0278,-0.0261,-0.0259,-0.0219,-0.021,-0.019,-0.0164,-0.0168,-0.0127,-0.0115,-0.0113,-0.0143,-0.0146,-0.0148,-0.0148,-0.0135,0,0,0,0,0,-0.0323,-0.0337,-0.0324,-0.0336,-0.0333,-0.0313,-0.0307,-0.0298,-0.0279,-0.0272,-0.0243,-0.0212,-0.0184,-0.0164,-0.0141,-0.0117,-0.008,-0.0105,-0.0108,-0.011,-0.0105,-0.0042,-0.0038,-0.0083,-0.0083,-0.0083,0,0,-0.0335,-0.0333,-0.0342,-0.034,-0.0331,-0.0331,-0.0309,-0.0309,-0.0305,-0.0264,-0.0251,-0.0224,-0.0182,-0.0159,-0.0146,-0.0135,-0.0081,-0.011,-0.0112,-0.0106,-0.0042,-0.0037,-0.0033,-0.0083,-0.0083,-0.0083,0,0,-0.0361,-0.0364,-0.0381,-0.0374,-0.0364,-0.0351,-0.0353,-0.0336,-0.0324,-0.0311,-0.0278,-0.0244,-0.0211,-0.017,-0.0146,-0.0146,-0.0103,-0.0144,-0.0146,-0.0086,-0.0081,-0.0077,-0.0037,-0.0029,-0.0137,-0.0137,-0.0137,0,-0.0372,-0.0394,-0.0383,-0.039,-0.0386,-0.0363,-0.0372,-0.0357,-0.0334,-0.0316,-0.0315,-0.0243,-0.0211,-0.0158,-0.0161,-0.0149,-0.0118,-0.0139,-0.0088,-0.0083,-0.0077,-0.0038,-0.0028,-0.0139,-0.0139,-0.0138,-0.0138,0,-0.0408,-0.042,-0.0428,-0.0431,-0.0424,-0.0431,-0.0408,-0.0398,-0.0381,-0.0356,-0.0313,-0.0266,-0.0218,-0.0203,-0.0183,-0.0127,-0.012,-0.0105,-0.008,-0.0075,-0.0034,-0.0023,-0.0141,-0.0141,-0.014,-0.014,0,0,-0.0443,-0.0453,-0.0455,-0.0461,-0.0447,-0.0448,-0.0436,-0.0412,-0.0397,-0.0364,-0.033,-0.0276,-0.0242,-0.0213,-0.0173,-0.0118,-0.0061,-0.0101,-0.0097,-0.0061,0.0058,0.0033,0.0043,-0.0037,-0.0035,-0.0034,0.0066,0,-0.0471,-0.05,-0.0491,-0.0509,-0.0521,-0.049,-0.0479,-0.045,-0.0419,-0.0382,-0.0313,-0.0275,-0.0248,-0.0224,-0.0164,-0.009,-0.0033,-0.0091,0.0047,0.0051,0.003,0.0055,-0.0028,0.0075,0.0077,0.0079,0.008,0,-0.0504,-0.052,-0.055,-0.0547,-0.0548,-0.0554,-0.0525,-0.0511,-0.0445,-0.0416,-0.0353,-0.0302,-0.0218,-0.0199,-0.0056,-0.0097,-0.0023,0.0037,0.0043,0.0043,0.0047,0.0073,0.0101,0.0099,0.0098,0.0096,0.0095,0,-0.0536,-0.0554,-0.0582,-0.0584,-0.058,-0.0583,-0.0575,-0.0526,-0.0507,-0.0436,-0.0409,-0.0305,-0.0253,-0.0143,-0.0027,-0.0038,0.0129,0.0134,0.0187,0.0185,0.0193,0.0187,0.0247,0.0247,0.0247,0.0247,0.0247,0,-0.0564,-0.0585,-0.0606,-0.0623,-0.0649,-0.0626,-0.0632,-0.0602,-0.055,-0.0517,-0.0433,-0.0377,-0.0236,-0.0126,-0.0023,0.011,0.0138,0.0194,0.0217,0.0172,0.0163,0.02,0.0193,0.0251,0.025,0.0249,0.0248,0,-0.0589,-0.0605,-0.0642,-0.066,-0.067,-0.069,-0.0687,-0.0678,-0.0625,-0.0577,-0.0554,-0.0424,-0.0282,-0.014,0.0044,0.0109,0.0243,0.0287,0.0219,0.0235,0.0256,0.0246,0.0353,0.0353,0.0354,0.0354,0.0354,0,-0.0602,-0.0628,-0.068,-0.0712,-0.0729,-0.0755,-0.0766,-0.0727,-0.0704,-0.0598,-0.0567,-0.0427,-0.0329,-0.008,0.0053,0.0249,0.0274,0.0328,0.0302,0.0259,0.0271,0.0261,0.0251,0.0354,0.0354,0.0354,0.0354,0,-0.0625,-0.0653,-0.0684,-0.0758,-0.0796,-0.082,-0.0826,-0.0807,-0.0737,-0.0699,-0.0549,-0.0411,-0.0251,-0.0072,0.0076,0.0216,0.0281,0.033,0.033,0.0306,0.0261,0.0271,0.0261,0.0354,0.0354,0.0354,0.0354,0,-0.0637,-0.0675,-0.0731,-0.0788,-0.0843,-0.0859,-0.0857,-0.0801,-0.0762,-0.0628,-0.0582,-0.0395,-0.0285,-0.0088,0.0052,0.0179,0.0206,0.0231,0.0238,0.0239,0.0165,0.0089,0.0159,0,0,0,0,0,-0.0638,-0.0689,-0.0753,-0.0816,-0.0871,-0.0895,-0.0881,-0.0858,-0.0789,-0.0684,-0.0621,-0.0461,-0.023,-0.0126,0.0001,0.0026,0.02,0.0173,0.0226,0.0357,0.0356,0.0286,0,0,0,0,0,0,-0.0645,-0.0712,-0.0753,-0.0826,-0.0868,-0.0913,-0.0899,-0.085,-0.0769,-0.0683,-0.0548,-0.0464,-0.0236,-0.0305,-0.0008,0.0029,0.0073,0.0287,0.0288,0.0357,0.0356,0.0356,0.0284,0,0,0,0,0]}]]